Date,TemperatureHighF,TemperatureAvgF,TemperatureLowF,DewpointHighF,DewpointAvgF,DewpointLowF,HumidityHigh,HumidityAvg,HumidityLow,PressureMaxIn,PressureMinIn,WindSpeedMaxMPH,WindSpeedAvgMPH,GustSpeedMaxMPH,PrecipitationSumIn
2013-1-1,34.0,21.4,1.0,28.0,15.5,-2.0,92,77,62,29.97,29.77,13,6,21,0.00
2013-1-2,25.0,16.0,1.0,19.0,9.8,-2.0,92,76,56,30.17,29.91,14,5,20,0.00
2013-1-3,30.0,14.4,-6.0,25.0,8.9,-11.0,92,79,66,30.17,29.92,8,3,0,0.00
2013-1-4,36.0,30.3,18.0,25.0,20.7,16.0,92,68,51,29.94,29.84,14,6,29,0.00
2013-1-5,34.0,31.4,27.0,27.0,22.7,19.0,86,70,55,30.24,29.93,15,6,29,0.00
2013-1-6,37.0,33.6,28.0,30.0,26.4,21.0,86,74,64,30.10,29.87,10,6,17,0.00
2013-1-7,36.0,27.6,19.0,32.0,22.0,16.0,93,80,68,30.34,29.99,13,7,20,0.00
2013-1-8,39.0,28.5,18.0,25.0,21.1,16.0,92,75,48,30.33,30.20,15,4,18,0.00
2013-1-9,46.0,30.4,10.0,32.0,21.4,9.0,100,72,39,30.32,29.97,20,7,39,0.00
2013-1-10,39.0,33.4,21.0,27.0,24.3,19.0,100,69,55,30.53,30.21,21,7,35,0.00
2013-1-11,39.0,34.2,19.0,37.0,27.7,19.0,100,77,51,30.49,30.02,21,11,30,0.00
2013-1-12,45.0,40.9,37.0,43.0,38.7,36.0,100,92,81,30.09,30.03,10,7,0,0.00
2013-1-13,54.0,48.1,41.0,50.0,45.3,39.0,100,90,81,30.08,29.87,17,9,24,0.00
2013-1-14,52.0,41.5,34.0,48.0,35.5,21.0,93,80,59,30.30,29.82,14,8,22,0.00
2013-1-15,32.0,30.3,28.0,25.0,23.3,19.0,86,74,59,30.34,30.17,6,2,0,0.00
2013-1-16,34.0,30.1,25.0,28.0,26.5,21.0,92,86,68,30.17,29.78,9,4,0,0.00
2013-1-17,36.0,27.0,18.0,28.0,18.5,9.0,86,70,49,30.12,29.82,16,6,22,0.00
2013-1-18,27.0,16.8,3.0,14.0,7.2,1.0,91,66,45,30.35,30.06,16,5,21,0.00
2013-1-19,46.0,38.1,27.0,25.0,17.0,10.0,52,42,35,30.13,29.69,14,9,27,0.00
2013-1-20,46.0,34.1,21.0,34.0,18.0,7.0,80,52,39,29.99,29.47,22,12,36,0.00
2013-1-21,25.0,19.9,14.0,19.0,12.4,7.0,92,72,53,29.99,29.78,12,4,16,0.00
2013-1-22,16.0,11.4,7.0,3.0,-2.7,-9.0,78,53,39,30.07,29.90,18,11,29,0.00
2013-1-23,10.0,2.8,-8.0,1.0,-4.0,-13.0,91,73,51,30.14,30.05,12,3,20,0.00
2013-1-24,12.0,2.5,-9.0,5.0,-4.1,-13.0,84,73,55,30.36,30.06,14,5,23,0.00
2013-1-25,18.0,11.3,5.0,10.0,3.8,0.0,92,72,44,30.36,30.01,9,3,17,0.00
2013-1-26,18.0,8.5,-2.0,9.0,2.9,-6.0,92,78,56,30.30,30.01,12,2,17,0.00
2013-1-27,25.0,15.4,7.0,12.0,6.7,0.0,92,70,32,30.48,30.30,9,2,0,0.00
2013-1-28,37.0,28.4,10.0,36.0,23.2,7.0,100,81,58,30.41,29.89,15,7,22,0.00
2013-1-29,48.0,41.0,36.0,46.0,38.6,34.0,100,91,75,30.06,29.90,14,6,20,0.00
2013-1-30,59.0,52.9,46.0,55.0,49.9,45.0,93,88,81,29.90,29.18,18,13,29,0.00
2013-1-31,54.0,30.3,21.0,52.0,21.9,16.0,93,72,50,29.62,29.15,21,12,44,0.00
2013-2-1,23.0,19.5,18.0,18.0,11.3,7.0,92,70,53,30.11,29.62,13,7,23,0.00
2013-2-2,19.0,16.6,10.0,16.0,9.7,7.0,92,74,57,30.13,29.95,10,5,0,0.00
2013-2-3,28.0,15.1,0.0,18.0,8.1,-6.0,92,75,46,29.95,29.72,9,2,0,0.00
2013-2-4,23.0,18.1,12.0,16.0,11.1,5.0,92,75,45,29.88,29.75,15,5,29,0.00
2013-2-5,25.0,18.0,12.0,16.0,11.4,9.0,92,76,58,29.92,29.80,7,2,0,0.00
2013-2-6,28.0,21.3,3.0,23.0,12.8,0.0,92,71,33,30.33,29.83,17,5,27,0.00
2013-2-7,30.0,18.6,1.0,14.0,7.3,-2.0,92,64,42,30.44,30.19,18,5,25,0.00
2013-2-8,36.0,30.5,27.0,27.0,24.0,12.0,92,76,50,30.19,29.77,18,10,25,0.00
2013-2-9,27.0,16.4,3.0,23.0,10.2,1.0,92,76,57,30.34,29.84,16,8,24,0.00
2013-2-10,36.0,22.8,1.0,16.0,10.5,-2.0,92,63,31,30.41,30.09,15,5,28,0.00
2013-2-11,41.0,36.7,34.0,37.0,28.0,9.0,93,72,34,30.09,29.61,20,11,28,0.00
2013-2-12,36.0,34.0,30.0,28.0,25.8,21.0,80,71,55,29.92,29.68,16,8,29,0.00
2013-2-13,37.0,31.6,28.0,25.0,21.9,18.0,86,68,47,29.88,29.69,7,1,0,0.00
2013-2-14,39.0,31.0,19.0,32.0,23.8,18.0,93,75,51,29.91,29.72,10,4,0,0.00
2013-2-15,41.0,35.3,28.0,32.0,25.7,18.0,93,69,44,29.99,29.81,13,7,23,0.00
2013-2-16,28.0,24.4,18.0,21.0,13.7,7.0,85,64,42,29.98,29.84,12,5,0,0.00
2013-2-17,18.0,14.0,10.0,9.0,6.0,3.0,85,70,56,29.99,29.78,20,9,30,0.00
2013-2-18,28.0,17.0,10.0,12.0,7.7,3.0,85,67,45,30.20,29.98,16,6,23,0.00
2013-2-19,39.0,32.9,27.0,34.0,22.7,10.0,93,68,44,30.03,29.60,15,9,30,0.00
2013-2-20,28.0,23.6,21.0,23.0,13.8,9.0,79,66,49,29.91,29.68,22,10,30,0.00
2013-2-21,21.0,17.9,16.0,18.0,12.0,7.0,92,77,67,30.36,29.88,17,9,29,0.00
2013-2-22,37.0,27.6,19.0,27.0,20.3,16.0,92,74,51,30.36,30.11,18,7,27,0.00
2013-2-23,37.0,35.8,32.0,36.0,31.8,23.0,100,84,64,30.11,29.82,17,10,28,0.00
2013-2-24,36.0,31.7,30.0,36.0,27.0,23.0,100,82,64,29.97,29.80,12,5,17,0.00
2013-2-25,34.0,28.7,21.0,30.0,25.3,18.0,100,87,69,30.22,29.97,9,3,0,0.00
2013-2-26,43.0,30.5,16.0,28.0,22.5,12.0,100,73,48,30.24,29.88,16,6,22,0.00
2013-2-27,39.0,36.3,34.0,36.0,32.1,28.0,100,85,69,29.90,29.53,17,7,28,0.00
2013-2-28,37.0,35.4,34.0,36.0,33.6,32.0,100,94,86,29.62,29.53,7,1,0,0.00
2013-3-1,34.0,31.4,28.0,32.0,28.3,25.0,93,88,80,29.82,29.62,16,7,24,0.00
2013-3-2,28.0,25.0,21.0,25.0,20.2,18.0,92,82,73,29.82,29.77,13,8,18,0.00
2013-3-3,27.0,21.9,18.0,19.0,17.1,16.0,92,80,63,29.79,29.74,13,6,18,0.00
2013-3-4,28.0,25.9,23.0,25.0,19.7,18.0,92,78,68,29.93,29.77,15,8,24,0.00
2013-3-5,32.0,26.5,16.0,25.0,21.4,12.0,92,81,68,30.04,29.93,9,4,16,0.00
2013-3-6,39.0,33.2,12.0,30.0,25.1,10.0,100,72,55,30.09,29.94,14,5,24,0.00
2013-3-7,36.0,33.7,28.0,28.0,23.0,19.0,92,66,51,30.17,30.07,13,7,16,0.00
2013-3-8,37.0,30.7,27.0,27.0,24.0,21.0,92,76,59,30.32,30.13,20,10,24,0.00
2013-3-9,45.0,30.8,16.0,28.0,21.1,12.0,100,71,36,30.35,30.28,9,2,0,0.00
2013-3-10,55.0,41.2,21.0,25.0,21.3,18.0,92,52,22,30.29,30.10,15,8,22,0.00
2013-3-11,50.0,46.1,43.0,41.0,29.8,-99.9,76,54,39,30.14,29.83,20,14,28,0.00
2013-3-12,52.0,42.8,34.0,48.0,39.5,30.0,100,87,71,29.88,29.76,25,2,35,0.00
2013-3-13,41.0,35.1,28.0,32.0,24.6,14.0,93,66,48,29.88,29.77,15,6,24,0.00
2013-3-14,28.0,24.1,18.0,19.0,12.6,9.0,79,62,46,29.92,29.83,20,12,35,0.00
2013-3-15,36.0,29.3,19.0,30.0,21.0,10.0,86,71,49,29.94,29.65,14,6,24,0.00
2013-3-16,32.0,25.4,19.0,21.0,15.9,10.0,79,66,54,29.90,29.77,15,4,22,0.00
2013-3-17,30.0,22.9,16.0,19.0,12.7,10.0,92,66,43,30.30,29.90,14,5,22,0.00
2013-3-18,37.0,24.7,12.0,27.0,14.3,3.0,92,69,23,30.34,29.88,17,7,25,0.00
2013-3-19,41.0,32.9,27.0,34.0,28.5,19.0,100,84,60,29.88,29.63,15,7,21,0.00
2013-3-20,34.0,26.1,12.0,25.0,19.2,10.0,92,75,51,29.78,29.74,14,4,23,0.00
2013-3-21,32.0,20.0,3.0,21.0,9.6,0.0,92,67,36,29.78,29.65,10,3,16,0.00
2013-3-22,34.0,27.3,18.0,27.0,21.7,12.0,92,79,55,29.82,29.64,13,5,24,0.00
2013-3-23,37.0,32.1,30.0,27.0,22.5,18.0,86,68,47,29.91,29.79,17,10,27,0.00
2013-3-24,37.0,33.1,27.0,25.0,21.7,19.0,86,63,47,29.90,29.72,10,5,17,0.00
2013-3-25,43.0,35.5,27.0,27.0,22.9,21.0,86,60,41,29.72,29.53,12,4,17,0.00
2013-3-26,45.0,37.1,28.0,30.0,25.4,19.0,80,63,38,29.87,29.63,13,5,18,0.00
2013-3-27,45.0,35.0,25.0,30.0,25.9,21.0,92,71,48,29.98,29.85,13,5,23,0.00
2013-3-28,43.0,38.3,34.0,32.0,29.8,27.0,93,73,56,30.14,29.97,13,6,18,0.00
2013-3-29,43.0,37.9,30.0,34.0,30.5,27.0,100,74,60,30.14,30.09,10,5,16,0.00
2013-3-30,50.0,37.7,27.0,30.0,26.3,21.0,100,68,31,30.15,30.07,14,3,18,0.00
2013-3-31,54.0,39.4,28.0,41.0,30.3,-99.9,92,75,34,30.09,29.67,21,7,29,0.00
2013-4-1,45.0,36.6,27.0,39.0,29.9,16.0,100,77,44,29.88,29.58,20,8,32,0.00
2013-4-2,32.0,27.9,25.0,25.0,18.6,12.0,86,68,50,30.01,29.85,18,10,30,0.00
2013-4-3,34.0,29.3,25.0,25.0,19.5,14.0,86,67,43,30.29,30.00,16,8,24,0.00
2013-4-4,54.0,39.1,27.0,23.0,19.5,14.0,79,48,25,30.32,29.93,12,5,20,0.00
2013-4-5,45.0,38.5,30.0,28.0,22.0,14.0,74,51,30,30.02,29.86,16,8,25,0.00
2013-4-6,45.0,34.3,25.0,27.0,14.2,7.0,74,46,20,30.29,30.02,15,6,27,0.00
2013-4-7,64.0,50.6,36.0,43.0,27.3,14.0,70,41,30,30.15,29.81,22,13,36,0.00
2013-4-8,63.0,50.0,39.0,45.0,34.7,32.0,80,57,33,30.12,29.86,12,3,0,0.00
2013-4-9,63.0,53.4,46.0,48.0,44.0,41.0,93,71,48,30.09,29.81,13,6,23,0.00
2013-4-10,54.0,48.3,45.0,50.0,46.0,45.0,100,91,81,30.01,29.82,12,4,20,0.00
2013-4-11,45.0,39.0,36.0,45.0,36.0,30.0,100,88,74,30.08,29.90,13,7,17,0.00
2013-4-12,45.0,40.3,36.0,43.0,37.0,30.0,100,88,80,30.01,29.64,18,9,25,0.00
2013-4-13,50.0,42.5,39.0,39.0,35.8,34.0,93,77,57,29.93,29.78,12,4,22,0.00
2013-4-14,45.0,38.8,32.0,36.0,30.0,27.0,93,71,48,30.21,29.92,10,4,17,0.00
2013-4-15,66.0,48.3,30.0,43.0,34.6,28.0,100,62,39,30.26,30.14,16,8,24,0.00
2013-4-16,61.0,54.1,48.0,54.0,45.9,37.0,87,74,54,30.21,30.02,18,11,28,0.00
2013-4-17,57.0,46.7,36.0,43.0,34.8,32.0,93,65,40,30.31,30.18,13,4,21,0.00
2013-4-18,64.0,52.6,36.0,52.0,40.0,34.0,100,64,39,30.29,29.93,28,14,39,0.00
2013-4-19,73.0,61.6,43.0,61.0,52.2,37.0,93,73,56,29.93,29.48,25,14,37,0.00
2013-4-20,46.0,41.1,34.0,37.0,28.6,19.0,86,62,39,30.34,29.73,18,8,28,0.00
2013-4-21,46.0,36.5,30.0,30.0,22.6,18.0,86,59,33,30.61,30.34,12,6,21,0.00
2013-4-22,59.0,42.8,28.0,32.0,25.0,19.0,92,56,22,30.61,30.42,14,5,25,0.00
2013-4-23,61.0,46.8,30.0,43.0,32.0,25.0,92,59,30,30.43,30.08,18,7,23,0.00
2013-4-24,72.0,54.8,43.0,57.0,44.6,37.0,87,71,40,30.08,29.68,17,9,29,0.00
2013-4-25,55.0,45.6,37.0,39.0,29.6,25.0,81,56,30,30.25,29.89,18,6,29,0.00
2013-4-26,52.0,44.2,34.0,36.0,32.6,28.0,86,65,40,30.45,30.24,12,4,0,0.00
2013-4-27,64.0,47.5,30.0,39.0,31.7,28.0,100,61,27,30.45,30.28,10,2,0,0.00
2013-4-28,73.0,56.6,36.0,39.0,34.2,-99.9,100,52,23,30.28,30.07,14,5,20,0.00
2013-4-29,59.0,53.7,48.0,48.0,45.8,37.0,93,74,44,30.17,30.10,20,11,27,0.00
2013-4-30,66.0,58.4,48.0,50.0,47.4,46.0,93,68,48,30.27,30.15,15,8,21,0.00
2013-5-1,79.0,60.8,43.0,46.0,37.0,28.0,93,48,19,30.42,30.27,10,4,17,0.00
2013-5-2,81.0,63.1,43.0,46.0,38.2,32.0,81,43,19,30.46,30.29,8,3,0,0.00
2013-5-3,75.0,62.1,48.0,46.0,39.0,30.0,87,46,24,30.39,30.27,13,6,18,0.00
2013-5-4,75.0,58.5,39.0,45.0,37.8,32.0,93,51,23,30.33,30.18,10,3,0,0.00
2013-5-5,77.0,60.1,43.0,45.0,38.5,27.0,93,52,16,30.25,30.12,13,4,17,0.00
2013-5-6,77.0,58.6,39.0,46.0,34.9,19.0,86,49,11,30.22,30.07,9,3,0,0.00
2013-5-7,81.0,63.2,46.0,52.0,46.2,39.0,93,59,22,30.16,30.03,8,2,16,0.00
2013-5-8,70.0,60.0,48.0,61.0,53.9,46.0,93,80,59,30.11,29.94,9,3,0,0.00
2013-5-9,70.0,58.9,48.0,55.0,52.4,48.0,100,80,46,29.98,29.89,9,3,0,0.00
2013-5-10,75.0,60.6,48.0,59.0,49.7,-99.9,100,73,38,30.01,29.82,16,5,22,0.00
2013-5-11,64.0,58.9,48.0,59.0,54.2,46.0,93,85,76,29.83,29.70,14,7,23,0.00
2013-5-12,55.0,47.9,39.0,48.0,34.2,-99.9,100,64,32,29.89,29.69,15,6,28,0.00
2013-5-13,46.0,40.6,34.0,34.0,29.4,27.0,93,64,48,30.09,29.89,13,6,23,0.00
2013-5-14,55.0,44.0,30.0,34.0,28.0,21.0,100,58,26,30.13,30.02,12,3,18,0.00
2013-5-15,75.0,52.9,34.0,54.0,40.8,30.0,93,65,43,30.03,29.58,18,7,30,0.00
2013-5-16,77.0,57.0,41.0,46.0,20.5,-99.9,93,49,23,29.94,29.74,17,7,29,0.00
2013-5-17,66.0,53.4,39.0,43.0,35.6,-99.9,93,61,34,30.24,29.94,13,4,16,0.00
2013-5-18,72.0,55.9,37.0,46.0,41.2,36.0,100,62,32,30.30,30.20,10,4,17,0.00
2013-5-19,64.0,59.6,54.0,55.0,52.7,46.0,87,78,67,30.24,30.12,15,10,23,0.00
2013-5-20,84.0,69.9,61.0,64.0,59.3,54.0,93,70,45,30.12,29.93,10,4,0,0.00
2013-5-21,88.0,73.1,63.0,66.0,62.8,57.0,93,72,43,29.97,29.80,15,4,43,0.00
2013-5-22,84.0,71.8,64.0,70.0,65.1,59.0,93,80,48,29.87,29.76,12,4,21,0.00
2013-5-23,75.0,67.5,63.0,64.0,61.4,57.0,93,80,56,29.84,29.74,13,6,18,0.00
2013-5-24,63.0,46.3,41.0,61.0,42.5,37.0,93,87,81,30.09,29.74,17,10,25,0.00
2013-5-25,50.0,46.0,43.0,41.0,37.9,34.0,87,74,57,30.10,30.04,18,10,31,0.00
2013-5-26,59.0,49.6,39.0,41.0,36.9,32.0,93,64,38,30.18,30.00,22,8,30,0.00
2013-5-27,68.0,52.0,36.0,43.0,35.6,30.0,100,61,25,30.24,30.17,13,4,21,0.00
2013-5-28,64.0,53.6,39.0,55.0,46.8,37.0,93,78,45,30.21,30.07,16,6,18,0.00
2013-5-29,84.0,67.4,57.0,66.0,60.9,55.0,100,81,51,30.07,29.95,13,6,24,0.00
2013-5-30,66.0,66.0,66.0,63.0,63.0,63.0,88,88,88,30.05,30.05,10,10,0,0.00
2013-5-31,66.0,66.0,66.0,63.0,63.0,63.0,88,88,88,30.05,30.05,10,10,0,0.00
2013-6-1,66.0,66.0,66.0,63.0,63.0,63.0,88,88,88,30.05,30.05,10,10,0,0.00
2013-6-2,66.0,66.0,66.0,63.0,63.0,63.0,88,88,88,30.05,30.05,10,10,0,0.00
2013-6-3,66.0,66.0,66.0,63.0,63.0,63.0,88,88,88,30.05,30.05,10,10,0,0.00
2013-6-4,66.0,66.0,66.0,63.0,63.0,63.0,88,88,88,30.05,30.05,10,10,0,0.00
2013-6-5,66.0,66.0,66.0,63.0,63.0,63.0,88,88,88,30.05,30.05,10,10,0,0.00
2013-6-6,66.0,66.0,66.0,63.0,63.0,63.0,88,88,88,30.05,30.05,10,10,0,0.00
2013-6-7,66.0,66.0,66.0,63.0,63.0,63.0,88,88,88,30.05,30.05,10,10,0,0.00
2013-6-8,66.0,66.0,66.0,63.0,63.0,63.0,88,88,88,30.05,30.05,10,10,0,0.00
2013-6-9,66.0,66.0,66.0,63.0,63.0,63.0,88,88,88,30.05,30.05,10,10,0,0.00
2013-6-10,64.0,63.6,63.0,63.0,61.2,61.0,93,90,88,29.98,29.82,8,5,0,0.00
2013-6-11,68.0,63.4,59.0,64.0,60.2,55.0,93,89,82,29.82,29.64,13,6,22,0.00
2013-6-12,72.0,62.0,55.0,57.0,52.7,50.0,93,72,46,29.92,29.77,13,6,20,0.00
2013-6-13,61.0,57.2,54.0,55.0,54.3,52.0,100,89,82,29.85,29.59,13,6,21,0.00
2013-6-14,72.0,61.8,55.0,57.0,54.8,52.0,93,79,56,29.95,29.74,20,6,25,0.00
2013-6-15,73.0,61.2,48.0,57.0,48.2,39.0,100,68,28,30.04,29.95,12,3,17,0.00
2013-6-16,70.0,62.0,52.0,63.0,55.9,50.0,93,80,52,30.00,29.74,12,4,17,0.00
2013-6-17,81.0,66.7,54.0,63.0,57.7,54.0,100,74,39,29.96,29.85,18,4,28,0.00
2013-6-18,70.0,61.0,55.0,59.0,54.7,48.0,100,80,52,30.01,29.91,12,3,16,0.00
2013-6-19,68.0,58.2,46.0,50.0,42.5,36.0,93,60,30,30.22,30.01,14,4,20,0.00
2013-6-30,82.0,71.5,63.0,70.0,65.1,63.0,100,81,51,29.94,29.73,9,3,0,0.00
2013-7-1,72.0,69.8,68.0,70.0,66.6,66.0,94,90,83,30.01,29.92,3,0,0,0.00
2013-7-2,81.0,73.6,70.0,72.0,68.6,66.0,94,84,69,30.12,30.03,8,4,0,0.00
2013-7-3,86.0,79.5,73.0,72.0,69.2,68.0,88,71,55,30.19,30.14,7,4,0,0.00
2013-7-4,88.0,77.6,70.0,75.0,71.1,68.0,94,80,55,30.23,30.15,13,4,21,0.00
2013-7-5,90.0,74.4,70.0,73.0,70.9,66.0,100,89,46,30.20,30.10,15,3,27,0.00
2013-7-6,84.0,77.0,70.0,72.0,66.4,61.0,100,72,45,30.18,30.08,6,2,0,0.00
2013-7-7,88.0,76.3,70.0,72.0,68.9,66.0,94,79,48,30.11,29.96,10,2,20,0.00
2013-7-8,81.0,70.2,70.0,70.0,63.9,-99.9,94,88,61,30.09,30.01,8,1,0,0.00
2013-7-9,82.0,72.7,68.0,72.0,67.9,66.0,94,85,61,30.11,29.98,9,2,0,0.00
2013-7-10,82.0,72.2,72.0,72.0,59.5,-99.9,94,74,65,29.99,29.81,8,6,0,0.00
2013-7-11,77.0,71.4,64.0,66.0,61.9,57.0,93,72,57,30.04,29.83,12,5,0,0.00
2013-7-12,79.0,68.3,61.0,64.0,61.0,57.0,93,79,47,30.19,30.05,9,2,0,0.00
2013-7-13,81.0,72.9,64.0,72.0,66.2,61.0,94,80,61,30.32,30.19,8,2,0,0.00
2013-7-14,88.0,78.2,66.0,73.0,68.7,64.0,94,74,48,30.37,30.28,6,1,0,0.00
2013-7-15,88.0,75.9,70.0,72.0,69.1,64.0,94,81,48,30.32,30.24,10,2,0,0.00
2013-7-16,88.0,75.8,64.0,70.0,65.4,63.0,93,73,43,30.30,30.24,7,2,0,0.00
2013-7-17,91.0,74.2,64.0,73.0,67.0,63.0,94,80,46,30.28,30.12,6,1,0,0.00
2013-7-18,90.0,79.2,72.0,72.0,70.9,68.0,94,76,49,30.12,30.02,7,1,0,0.00
2013-7-19,91.0,81.5,72.0,73.0,70.2,68.0,94,71,46,30.01,29.78,10,4,17,0.00
2013-7-20,81.0,70.4,63.0,68.0,57.6,-99.9,93,70,50,29.91,29.79,10,3,0,0.00
2013-7-21,81.0,68.5,59.0,63.0,58.8,54.0,100,74,44,30.03,29.91,8,2,0,0.00
2013-7-22,82.0,68.7,63.0,70.0,64.8,61.0,100,87,61,30.04,29.86,6,1,0,0.00
2013-7-23,81.0,71.3,66.0,70.0,66.1,64.0,100,85,57,29.84,29.64,5,1,0,0.00
2013-7-24,66.0,62.9,59.0,64.0,54.3,50.0,93,73,67,30.01,29.67,13,7,18,0.00
2013-7-25,72.0,63.1,48.0,55.0,50.2,46.0,93,66,46,30.13,30.06,7,2,0,0.00
2013-7-26,75.0,62.4,52.0,61.0,54.6,50.0,100,78,43,30.12,30.04,7,1,0,0.00
2013-7-27,81.0,71.5,54.0,66.0,60.3,52.0,100,71,44,30.07,29.92,10,4,16,0.00
2013-7-28,75.0,68.7,64.0,66.0,63.6,61.0,93,84,64,30.01,29.91,10,5,0,0.00
2013-7-29,73.0,62.8,57.0,61.0,56.3,54.0,100,81,49,30.15,30.02,8,2,0,0.00
2013-7-30,72.0,64.6,55.0,61.0,56.5,54.0,100,76,56,30.21,30.15,7,2,0,0.00
2013-7-31,79.0,62.5,55.0,63.0,56.3,54.0,100,82,44,30.19,30.04,3,0,0,0.00
2013-8-1,79.0,65.3,57.0,68.0,61.8,55.0,93,89,65,30.03,29.82,8,3,0,0.00
2013-8-2,75.0,64.9,57.0,63.0,57.6,54.0,100,79,49,29.92,29.86,6,2,0,0.00
2013-8-3,75.0,65.8,55.0,59.0,55.7,52.0,100,72,43,29.94,29.84,10,4,18,0.00
2013-8-4,72.0,60.7,55.0,57.0,54.3,50.0,100,80,49,30.02,29.91,14,4,22,0.00
2013-8-5,72.0,58.9,48.0,55.0,50.5,46.0,93,76,40,30.11,30.02,8,2,0,0.00
2013-8-6,75.0,64.1,48.0,57.0,52.5,48.0,100,69,43,30.12,30.08,9,3,0,0.00
2013-8-7,72.0,67.9,59.0,64.0,60.9,57.0,93,79,68,30.11,30.01,12,7,17,0.00
2013-8-8,84.0,73.1,68.0,70.0,66.1,64.0,88,80,54,30.03,29.96,9,5,0,0.00
2013-8-9,75.0,69.5,63.0,72.0,65.9,63.0,100,88,73,29.96,29.86,9,2,0,0.00
2013-8-10,72.0,63.1,52.0,61.0,53.5,46.0,100,74,40,30.12,29.94,14,3,22,0.00
2013-10-20,54.0,46.4,37.0,41.0,33.5,-99.9,93,65,50,30.01,29.70,13,5,21,0.00
2013-10-21,64.0,50.4,39.0,39.0,37.9,36.0,93,66,36,30.06,29.89,10,5,20,0.00
2013-10-22,54.0,48.0,36.0,43.0,37.0,30.0,93,67,49,29.84,29.75,10,6,18,0.00
2013-10-23,46.0,40.4,36.0,37.0,34.6,32.0,93,79,57,29.83,29.64,7,2,0,0.00
2013-10-24,48.0,40.3,32.0,36.0,30.6,27.0,93,70,45,29.93,29.75,16,6,24,0.00
2013-10-25,46.0,39.6,34.0,36.0,34.2,32.0,100,80,57,30.15,29.93,12,4,21,0.00
2013-10-26,46.0,41.0,36.0,34.0,29.8,27.0,93,65,45,30.14,29.85,14,8,25,0.00